Weather History for KSTS - March, 2013

Change the Weather History Date:

Saturday, March 30, 2013

  Actual Average Record
Temperature  
Mean Temperature 59 °F 54 °F  
Max Temperature 67 °F 66 °F 85 °F (2011)
Min Temperature 50 °F 42 °F 32 °F (1999)
Degree Days  
Heating Degree Days 6    
Month to date heating degree days 339  
Since 1 July heating degree days 2416  
Cooling Degree Days 0    
Month to date cooling degree days 0  
Year to date cooling degree days 0  
Growing Degree Days 7 (Base 50)    
Moisture  
Dew Point 50 °F    
Average Humidity 78    
Maximum Humidity 93    
Minimum Humidity 63    
Precipitation  
Precipitation 0.09 in 0.14 in 0.33 in (1999)
Month to date precipitation 1.59 4.84  
Year to date precipitation 2.78 18.29  
Since 1 July precipitation 25.19  
Sea Level Pressure  
Sea Level Pressure 30.03 in    
Wind  
Wind Speed 3 mph (South)    
Max Wind Speed 15 mph    
Max Gust Speed 20 mph    
Visibility 9 miles    
Events Rain    
T = Trace of Precipitation, MM = Missing Value Source: NWS Daily Summary

Daily Weather History Graph

Daily Weather History Graph

Search for Another Location

Airport or City:

Trip Planner

Search our weather history database for the weather conditions in past years. The results will help you decide how hot, cold, wet, or windy it might be!

Date:

Astronomy

Mar. 30, 2013 Rise Set
Actual Time 6:58 AM PDT 7:33 PM PDT
Civil Twilight 6:32 AM PDT 7:59 PM PDT
Nautical Twilight 6:00 AM PDT 8:31 PM PDT
Astronomical Twilight 5:28 AM PDT 9:03 PM PDT
Moon 11:42 PM PDT (3/30) 9:01 AM PDT (3/30)
Length of Visible Light 13h 27m
Length of Day
12h 34m
Waning Gibbous, 85% of the Moon is Illuminated
Mar 30
Waning Gibbous
Apr 2
Last Quarter
Apr 10
New
Apr 18
First Quarter
Apr 25
Full

Hourly Weather History & Observations

Time (PDT) Temp. Dew Point Humidity Pressure Visibility Wind Dir Wind Speed Gust Speed Precip Events Conditions
12:53 AM 55.0 °F 48.0 °F 77% 30.04 in 10.0 mi SE 3.5 mph - N/A   Clear
1:53 AM 54.0 °F 48.0 °F 80% 30.04 in 10.0 mi South 5.8 mph - N/A   Partly Cloudy
2:53 AM 53.1 °F 48.0 °F 83% 30.04 in 10.0 mi SE 3.5 mph - N/A   Scattered Clouds
3:53 AM 52.0 °F 48.9 °F 89% 30.02 in 8.0 mi Calm Calm - N/A   Scattered Clouds
4:53 AM 52.0 °F 48.9 °F 89% 30.00 in 7.0 mi Calm Calm - N/A   Partly Cloudy
5:53 AM 51.1 °F 48.0 °F 89% 30.00 in 6.0 mi Calm Calm - N/A   Partly Cloudy
6:53 AM 50.0 °F 48.0 °F 93% 30.02 in 7.0 mi SSE 3.5 mph - N/A   Mostly Cloudy
7:53 AM 51.1 °F 48.0 °F 89% 30.04 in 6.0 mi SE 4.6 mph - N/A   Mostly Cloudy
8:53 AM 52.0 °F 48.9 °F 89% 30.05 in 10.0 mi SSE 5.8 mph - 0.00 in Rain Light Rain
9:22 AM 53.6 °F 50.0 °F 88% 30.06 in 10.0 mi SSE 4.6 mph - 0.00 in   Mostly Cloudy
9:53 AM 54.0 °F 50.0 °F 86% 30.05 in 10.0 mi South 5.8 mph - 0.00 in   Mostly Cloudy
10:53 AM 57.0 °F 50.0 °F 77% 30.06 in 10.0 mi South 6.9 mph - N/A   Mostly Cloudy
11:10 AM 57.2 °F 51.8 °F 82% 30.07 in 10.0 mi SE 5.8 mph - N/A   Overcast
11:53 AM 57.0 °F 50.0 °F 77% 30.06 in 10.0 mi WSW 4.6 mph - 0.00 in Rain Light Rain
12:53 PM 57.9 °F 50.0 °F 75% 30.06 in 10.0 mi SW 3.5 mph - 0.00 in   Mostly Cloudy
1:53 PM 57.9 °F 53.1 °F 84% 30.04 in 10.0 mi Calm Calm - 0.03 in Rain Light Rain
2:00 PM 57.2 °F 51.8 °F 82% 30.06 in 10.0 mi Calm Calm - 0.00 in Rain Light Rain
2:53 PM 62.1 °F 54.0 °F 75% 30.02 in 10.0 mi Calm Calm - 0.00 in   Mostly Cloudy
3:53 PM 64.9 °F 51.1 °F 61% 30.00 in 10.0 mi Calm Calm - N/A   Mostly Cloudy
4:53 PM 61.0 °F 48.9 °F 64% 29.98 in 10.0 mi SW 11.5 mph 19.6 mph N/A   Mostly Cloudy
5:53 PM 60.1 °F 48.9 °F 67% 29.99 in 10.0 mi WSW 9.2 mph - N/A   Mostly Cloudy
6:53 PM 59.0 °F 48.0 °F 67% 30.00 in 10.0 mi Calm Calm - N/A   Mostly Cloudy
7:53 PM 57.0 °F 50.0 °F 77% 30.01 in 7.0 mi Calm Calm - 0.01 in Rain Light Rain
8:53 PM 55.0 °F 51.1 °F 86% 30.02 in 10.0 mi Calm Calm - 0.01 in   Mostly Cloudy
9:11 PM 55.4 °F 51.8 °F 88% 30.03 in 10.0 mi NW 3.5 mph - 0.00 in Rain Light Rain
9:44 PM 55.4 °F 51.8 °F 88% 30.03 in 10.0 mi Calm Calm - 0.00 in   Overcast
9:53 PM 55.0 °F 52.0 °F 89% 30.02 in 9.0 mi Calm Calm - 0.00 in Rain Light Rain
10:48 PM 53.6 °F 51.8 °F 94% 30.03 in 10.0 mi Calm Calm - 0.02 in   Overcast
10:53 PM 54.0 °F 52.0 °F 93% 30.01 in 10.0 mi Calm Calm - 0.02 in   Mostly Cloudy
11:53 PM 55.0 °F 53.1 °F 93% 30.01 in 10.0 mi South 3.5 mph - 0.01 in Rain Light Rain